FW8630 Weather Reports


time (UTC)temp
F
wind
direction
speed
knots
gust
knots
rain 1hr
in
rain 24hr
in
rain mn
in
humidity
%
barometer
mb
20260507220019 35 69 0.0 0.0 0.00 0.00 0.00 93 1023.0
20260507214517 36 69 0.0 0.0 0.00 0.00 0.00 93 1023.0
20260507213016 37 69 0.0 0.9 0.00 0.00 0.00 92 1022.9
20260507211519 38 69 0.0 0.0 0.00 0.00 0.00 92 1022.5
20260507210011 38 69 0.0 1.7 0.00 0.00 0.00 90 1022.4
20260507204510 39 69 0.0 0.9 0.00 0.00 0.00 89 1022.2
20260507203010 40 69 0.0 1.7 0.00 0.00 0.00 87 1022.2
20260507201507 41 69 0.0 0.0 0.00 0.00 0.00 85 1022.0
20260507200006 43 69 0.0 0.0 0.00 0.00 0.00 84 1021.9
20260507194505 44 69 0.0 1.7 0.00 0.00 0.00 82 1021.7
20260507193004 45 69 1.7 4.3 0.00 0.00 0.00 80 1021.5
20260507191502 45 69 0.9 5.2 0.00 0.00 0.00 79 1021.2
20260507190106 46 80 1.7 4.3 0.00 0.00 0.00 78 1021.0
20260507184602 48 70 0.9 2.6 0.00 0.00 0.00 76 1020.8
20260507183058 49 63 0.9 4.3 0.00 0.00 0.00 75 1020.6
20260507181555 50 63 1.7 5.2 0.00 0.00 0.00 73 1020.3
20260507180054 51 26 2.6 7.8 0.00 0.00 0.00 71 1020.0
20260507174552 52 49 1.7 7.0 0.00 0.00 0.00 69 1019.9
20260507173050 53 55 2.6 8.7 0.00 0.00 0.00 67 1019.8
20260507171549 54 69 1.7 7.8 0.00 0.00 0.00 65 1019.6
20260507170053 56 5 1.7 7.0 0.00 0.00 0.00 63 1019.5
20260507164557 58 40 1.7 8.7 0.00 0.00 0.00 63 1019.3
20260507163045 58 68 1.7 7.8 0.00 0.00 0.00 63 1019.3
20260507161545 58 122 2.6 9.6 0.00 0.00 0.00 63 1019.2
20260507160044 59 47 3.5 8.7 0.00 0.00 0.00 61 1019.3
20260507154551 60 44 4.3 10.4 0.00 0.00 0.00 59 1019.1
20260507153041 60 44 2.6 8.7 0.00 0.00 0.00 61 1019.1
20260507151539 58 5 3.5 10.4 0.00 0.00 0.00 57 1019.1
20260507150035 58 301 3.5 9.6 0.00 0.00 0.00 58 1019.0
20260507144534 57 336 5.2 9.6 0.00 0.00 0.00 56 1018.8
20260507143035 57 317 6.1 10.4 0.00 0.00 0.00 56 1018.7
20260507141531 56 49 3.5 11.3 0.00 0.00 0.00 57 1018.8
20260507140032 56 355 4.3 10.4 0.00 0.00 0.00 57 1018.7
20260507134532 57 333 3.5 10.4 0.00 0.00 0.00 54 1018.6
20260507133029 56 345 7.0 13.9 0.00 0.00 0.00 55 1018.3
20260507131533 56 306 5.2 16.5 0.00 0.00 0.00 56 1018.4
20260507130026 57 320 4.3 13.0 0.00 0.00 0.00 56 1018.2
20260507124530 57 13 5.2 10.4 0.00 0.00 0.00 58 1018.1
20260507123023 56 340 5.2 12.2 0.00 0.00 0.00 58 1017.9
20260507121522 56 300 8.7 13.9 0.00 0.00 0.00 57 1017.8
20260507120026 57 299 7.0 12.2 0.00 0.00 0.00 55 1017.7
20260507114520 56 312 5.2 10.4 0.00 0.00 0.00 55 1017.6
20260507113019 57 307 4.3 11.3 0.00 0.00 0.00 52 1017.7
20260507111517 56 325 5.2 10.4 0.00 0.00 0.00 53 1017.8
20260507110017 56 312 4.3 11.3 0.00 0.00 0.00 55 1017.8
20260507104514 56 278 5.2 13.0 0.00 0.00 0.00 59 1017.7
20260507103013 56 336 6.1 12.2 0.00 0.00 0.00 56 1017.5
20260507101515 56 355 7.0 11.3 0.00 0.00 0.00 61 1017.4
20260507100009 55 312 5.2 11.3 0.00 0.00 0.00 56 1017.7
20260507094508 55 331 3.5 7.8 0.00 0.00 0.00 58 1017.2
20260507093004 54 24 0.9 9.6 0.00 0.00 0.00 53 1017.2
20260507091600 54 61 1.7 8.7 0.00 0.00 0.00 54 1017.1
20260507090101 53 9 2.6 9.6 0.00 0.00 0.00 53 1017.1
20260507084559 52 19 2.6 10.4 0.00 0.00 0.00 56 1016.9
20260507083052 51 348 5.2 12.2 0.00 0.00 0.00 55 1016.7
20260507081548 51 294 2.6 10.4 0.00 0.00 0.00 57 1016.8
20260507080100 51 336 3.5 11.3 0.00 0.00 0.00 57 1016.9
20260507074543 50 320 1.7 9.6 0.00 0.00 0.00 61 1016.7
20260507073041 50 346 7.0 12.2 0.00 0.00 0.00 59 1016.8
20260507071539 49 44 5.2 9.6 0.00 0.00 0.00 63 1016.7
20260507070038 49 319 5.2 11.3 0.00 0.00 0.00 65 1016.7
20260507064536 49 336 5.2 13.0 0.00 0.00 0.00 67 1016.5
20260507063031 49 18 5.2 10.4 0.00 0.00 0.00 74 1016.6
20260507061527 47 19 2.6 7.8 0.00 0.00 0.00 77 1016.7
20260507060027 45 355 4.3 7.8 0.00 0.00 0.00 81 1016.5
20260507054524 42 19 2.6 8.7 0.00 0.00 0.00 86 1016.5
20260507053014 39 355 2.6 7.0 0.00 0.00 0.00 89 1016.5
20260507051509 37 333 0.0 1.7 0.00 0.00 0.00 89 1016.5
20260507050007 36 333 0.0 1.7 0.00 0.00 0.00 89 1016.5
20260507044505 34 333 0.9 1.7 0.00 0.00 0.00 91 1016.5
20260507043006 32 333 0.0 1.7 0.00 0.00 0.00 92 1016.4
20260507041600 32 333 0.9 1.7 0.00 0.00 0.00 92 1016.4
20260507033051 30 55 0.0 0.0 0.00 0.00 0.00 94 1016.2
20260507031546 30 55 0.0 1.7 0.00 0.00 0.00 96 1016.1
20260507021544 31 55 0.9 2.6 0.00 0.00 0.00 96 1015.8
20260507020057 32 53 0.0 2.6 0.00 0.00 0.00 96 1015.7
20260507014536 33 52 0.9 3.5 0.00 0.00 0.00 96 1015.8
20260507013047 33 46 0.9 3.5 0.00 0.00 0.00 96 1015.7
20260507011534 33 62 1.7 4.3 0.00 0.00 0.00 96 1015.7
20260507010036 33 51 1.7 5.2 0.00 0.00 0.00 97 1015.6
20260507004530 33 64 1.7 3.5 0.00 0.00 0.00 97 1015.6
20260507003040 33 56 1.7 4.3 0.00 0.00 0.00 97 1015.7
20260507001530 33 58 1.7 4.3 0.00 0.00 0.00 97 1015.6
20260507000033 33 53 1.7 4.3 0.00 0.00 0.00 96 1015.7
20260506234527 33 47 1.7 4.3 0.00 0.00 0.00 96 1015.6
20260506233022 34 63 1.7 4.3 0.00 0.00 0.00 96 1015.7
20260506231520 34 40 2.6 4.3 0.00 0.00 0.00 95 1015.8
20260506230020 35 67 1.7 3.5 0.00 0.00 0.00 95 1015.8
20260506224517 35 65 0.9 3.5 0.00 0.00 0.00 95 1015.7
20260506223014 35 92 1.7 3.5 0.00 0.00 0.00 94 1015.8
20260506221512 36 41 1.7 4.3 0.00 0.00 0.00 94 1015.5